Tracking 32139 objects as of 16-Nov-2025
HD Live streaming from Space Station
objects crossing your sky now

JILIN-01 KUANFU 02B 1

Track JILIN-01 KUANFU 02B 1 now!
10-day predictions


NORAD ID: 61189
Int'l Code: 2024-169A
Perigee: 540.9 km
Apogee: 543.3 km
Inclination: 97.6 °
Period: 95.3 minutes
Semi major axis: 6913 km
RCS: Unknown
Launch date: September 20, 2024
Source: People's Republic of China (PRC)
Launch site: Taiyaun Space Center, China (TSC)
Your satellite tracking list
Your tracking list is empty




NASA's NSSDC Master Catalog

Two Line Element Set (TLE):
1 61189U 24169A   25319.78371201  .00008180  00000-0  50145-3 0  9991
2 61189  97.5794  47.2276 0001720 111.5139 248.6274 15.10413384 63638
Source of the keplerian elements: AFSPC